sat.trackr.live / text

‹ back to catalog

STARLINK-35441

NORAD 65869 · 2025-223R

PAYLOAD ACTIVE UNKNOWN

§ Identity

Operator
Country
US
Launch date
2025-10-03
Launch site
AFWTR
Launch vehicle
Mass (kg)
RCS (m²)

Purposes: comms

External: N2YO · Heavens-Above · Gunter

§ Orbital elements

Epoch: 2026-09-20T23:05:45.663648Z

Period
93.85 min
Inclination
53.1597°
Eccentricity
0.0000839
Mean motion
15.34408874 rev/d
Perigee alt
462.1 km
Apogee alt
463.3 km
Semi-major
6,840.8 km
B*
5.5984e-4
RAAN
103.5471°
Arg perigee
84.7514°
Mean anomaly
275.3584°
Rev number
5,415

§ Raw data

STARLINK-354411 65869U 25223R   26263.96233407  .00018591  00000+0  55984-3 0  99982 65869  53.1597 103.5471 0000839  84.7514 275.3584 15.34408874 54159

JSON: /api/v1/satellites/65869 · /tle

For live sub-satellite position, see the globe view (requires WebGL).

§ Visibility from observer

Set your observer location to see the next 7 days of passes ≥ 10°. The values pass through the URL so the page stays shareable.

No JS? Fill the form by hand. The geolocation button needs JavaScript.